Regional Weather Roundup
Issued by NWS

Home | Current Version | Previous Version | Graphics & Text | Print | Product List | Glossary On
Versions: 1 2 3 4 5 6 7 8 9 10 11 12 13 14 15 16 17 18 19 20 21 22 23 24 25 26 27 28 29 30 31 32 33 34 35 36 37 38 39 40 41 42 43 44 45 46 47 48 49 50
000
ASUS45 KPSR 250810
RWRAZ

ARIZONA REGIONAL HOURLY WEATHER ROUNDUP
NATIONAL WEATHER SERVICE PHOENIX AZ
100 AM MST SAT APR 25 2015

NOTE: FAIR INDICATES FEW OR NO CLOUDS BELOW 12,000 FEET WITH NO
SIGNIFICANT WEATHER AND/OR OBSTRUCTIONS TO VISIBILITY.

AZZ001>003-036-250900-
NORTHWEST ARIZONA

CITY           SKY/WX    TMP DP  RH WIND       PRES   REMARKS
BULLHEAD CITY  PTCLDY    70  37  30 S6        29.80S
KINGMAN        CLOUDY    57  39  51 S7        29.87S
$$

AZZ004>008-015-016-018-250900-
NORTH CENTRAL ARIZONA

CITY           SKY/WX    TMP DP  RH WIND       PRES   REMARKS
GRAND CANYON   CLOUDY    44  35  70 S9        29.97S
WILLIAMS       MOCLDY    43  37  81 SW13      30.05S
PRESCOTT       PTCLDY    49  38  65 S7        29.96R
FLAGSTAFF      CLOUDY    40  39  97 SW10      29.99S WCI  33
PAYSON         CLOUDY    48  43  81 CALM      30.00F
PAGE           CLOUDY    59  34  39 CALM      29.83S
$$

AZZ009>014-017-250900-
NORTHEAST ARIZONA

CITY           SKY/WX    TMP DP  RH WIND       PRES   REMARKS
WINSLOW        MOCLDY    50  38  63 SW16      29.94F
SAINT JOHNS    CLEAR     45  34  65 CALM      29.98S
WINDOW ROCK    MOCLDY    39  32  76 SE3       29.99S
SHOW LOW       CLEAR     37  32  81 S6        30.02F WCI  33
$$

AZZ023-250900-
GREATER PHOENIX AREA

CITY           SKY/WX    TMP DP  RH WIND       PRES   REMARKS
PHOENIX        PTCLDY    71  38  29 W3        29.86S
BUCKEYE          N/A     61  48  63 CALM      29.89S
LUKE AFB       CLEAR     65  46  49 SW6       29.87S
DEER VALLEY    CLOUDY    64  43  46 W5        29.88S
SCOTTSDALE     CLEAR     67  42  40 CALM      29.90S
MESA-GATEWAY   CLEAR     61  39  44 S6        29.91S
$$

AZZ027-028-250900-
SOUTHWEST MARICOPA COUNTY AND PINAL COUNTY

CITY           SKY/WX    TMP DP  RH WIND       PRES   REMARKS
CASA GRANDE    CLEAR     61  36  39 SE3       29.90S
$$

AZZ503-504-507>509-250900-
SOUTHEAST ARIZONA

CITY           SKY/WX    TMP DP  RH WIND       PRES   REMARKS
TUCSON         CLEAR     62  37  39 S9        29.97S
DAVIS-MONTHAN  CLEAR     58  38  48 E6        29.95S
NOGALES        CLEAR     52  36  54 S5        30.01S
SIERRA VISTA   CLEAR     48  36  62 NW3       30.02F
DOUGLAS        CLEAR     58  33  39 W8        30.01S
SAFFORD        CLEAR     56  38  50 S3        29.93S
$$

AZZ020-021-025-026-031-250900-
SOUTHWEST ARIZONA

CITY           SKY/WX    TMP DP  RH WIND       PRES   REMARKS
YUMA           CLEAR     65  47  52 CALM      29.89S
$$

CAZ031-033-041-043-047-048-061-250900-
SOUTHERN CALIFORNIA

CITY           SKY/WX    TMP DP  RH WIND       PRES   REMARKS
DOWNTOWN L.A.  CLEAR     57  52  83 CALM      30.00S
L.A. AIRPORT   PTCLDY    58  50  75 W9        30.00S
SAN DIEGO      MOCLDY    62  50  64 SW7       30.02F
BURBANK        CLOUDY    57  49  74 CALM      29.99S
ONTARIO        CLOUDY    56  50  80 W9        29.99S
RIVERSIDE      CLOUDY    57  51  80 CALM      29.99F
PALM SPRINGS   CLEAR     67  45  45 NW14      29.85S
EL CENTRO NAS  CLEAR     66  45  46 W28G36    29.89S
IMPERIAL       CLEAR     65  47  52 W31G40    29.83F
BLYTHE         PTCLDY    63  49  60 S9        29.84R
NEEDLES        MOCLDY    69  35  28 W8        29.80S
$$

NVZ020-UTZ003-250900-
SOUTHERN NEVADA-UTAH

CITY           SKY/WX    TMP DP  RH WIND       PRES   REMARKS
LAS VEGAS      PTCLDY    63  38  39 S15       29.74R
SALT LAKE CITY MOCLDY    46  42  86 CALM      29.82R
$$

NMZ009-TXZ055-250900-
NEW MEXICO-WEST TEXAS

CITY           SKY/WX    TMP DP  RH WIND       PRES   REMARKS
ALBUQUERQUE    PTCLDY    51  33  50 W9        29.96F
EL PASO        PTCLDY    60  29  30 SW6       29.95S
$$


........................KEY........................
SKY/WX - SKY CONDITION/WEATHER
TMP    - TEMPERATURE IN FAHRENHEIT
DP     - DEW POINT IN FAHRENHEIT
RH     - RELATIVE HUMIDITY IN PERCENT
WIND   - DIRECTION AND SPEED IN MILES PER HOUR (MPH)
VRB    - VARIABLE WIND DIRECTION
PRES   - MEAN SEA LEVEL PRESSURE IN INCHES OF MERCURY
         F - FALLING PRESSURE   R - RISING PRESSURE
         S - STEADY PRESSURE
VSB    - VISIBILITY IN MILES
HX     - HEAT INDEX IN FAHRENHEIT
WCI    - WIND CHILL INDEX IN FAHRENHEIT
TC     - TEMPERATURE IN CELSIUS WHICH IS ALSO KNOWN AS
         TEMPERATURE IN CENTIGRADE
AFB    - AIR FORCE BASE
         LUKE AFB IS LUKE AIR FORCE BASE
         DAVIS-MONTHAN IS DAVIS-MONTHAN AIR FORCE BASE
NAS    - NAVAL AIR STATION
         EL CENTRO NAS IS EL CENTRO NAVAL AIR STATION
N/A    - NOT AVAILABLE



USA.gov is the U.S. government's official web portal to all federal, state and local government web resources and services.